TimeEDT,TemperatureF,Dew PointF,Humidity,Sea Level PressureIn,VisibilityMPH,Wind Direction,Wind SpeedMPH,Gust SpeedMPH,PrecipitationIn,Events,Conditions,WindDirDegrees,DateUTC
12:15 AM,38.7,16.7,41,30.18,10.0,Calm,Calm,-,N/A,,Clear,0,2013-03-15 04:15:00
12:35 AM,36.9,17.2,45,30.18,10.0,Calm,Calm,-,N/A,,Clear,0,2013-03-15 04:35:00
12:55 AM,36.7,18.0,47,30.18,10.0,Calm,Calm,-,N/A,,Clear,0,2013-03-15 04:55:00
1:15 AM,36.1,18.5,49,30.18,10.0,Calm,Calm,-,N/A,,Clear,0,2013-03-15 05:15:00
1:35 AM,36.3,18.5,48,30.18,10.0,Calm,Calm,-,N/A,,Clear,0,2013-03-15 05:35:00
1:55 AM,35.2,18.5,51,30.18,10.0,Calm,Calm,-,N/A,,Clear,0,2013-03-15 05:55:00
2:15 AM,34.5,18.1,51,30.18,10.0,Calm,Calm,-,N/A,,Clear,0,2013-03-15 06:15:00
2:35 AM,33.4,18.3,54,30.17,10.0,Calm,Calm,-,N/A,,Clear,0,2013-03-15 06:35:00
3:15 AM,31.5,20.1,63,30.15,10.0,Calm,Calm,-,N/A,,Clear,0,2013-03-15 07:15:00
3:35 AM,31.1,18.9,61,30.14,10.0,Calm,Calm,-,N/A,,Clear,0,2013-03-15 07:35:00
3:55 AM,30.9,19.9,64,30.14,10.0,Calm,Calm,-,N/A,,Clear,0,2013-03-15 07:55:00
4:15 AM,30.2,21.0,69,30.14,10.0,Calm,Calm,-,N/A,,Clear,0,2013-03-15 08:15:00
4:35 AM,29.5,23.2,77,30.15,10.0,Calm,Calm,-,N/A,,Clear,0,2013-03-15 08:35:00
5:15 AM,28.4,20.5,72,30.16,10.0,Calm,Calm,-,N/A,,Clear,0,2013-03-15 09:15:00
5:35 AM,27.9,21.2,76,30.16,10.0,Calm,Calm,-,N/A,,Clear,0,2013-03-15 09:35:00
5:55 AM,28.0,21.7,77,30.16,10.0,Calm,Calm,-,N/A,,Clear,0,2013-03-15 09:55:00
6:15 AM,27.5,22.8,83,30.14,10.0,Calm,Calm,-,N/A,,Clear,0,2013-03-15 10:15:00
6:35 AM,27.9,22.1,79,30.16,10.0,Calm,Calm,-,N/A,,Clear,0,2013-03-15 10:35:00
6:55 AM,27.9,21.7,78,30.16,10.0,Calm,Calm,-,N/A,,Clear,0,2013-03-15 10:55:00
7:15 AM,26.6,22.1,83,30.16,10.0,Calm,Calm,-,N/A,,Clear,0,2013-03-15 11:15:00
7:35 AM,27.1,21.4,79,30.15,10.0,Calm,Calm,-,N/A,,Clear,0,2013-03-15 11:35:00
7:55 AM,27.5,22.6,82,30.16,10.0,Calm,Calm,-,N/A,,Clear,0,2013-03-15 11:55:00
8:15 AM,29.3,23.2,78,30.17,10.0,Calm,Calm,-,N/A,,Clear,0,2013-03-15 12:15:00
8:35 AM,31.5,25.7,79,30.18,10.0,Calm,Calm,-,N/A,,Clear,0,2013-03-15 12:35:00
8:55 AM,34.2,26.6,74,30.18,10.0,Calm,Calm,-,N/A,,Clear,0,2013-03-15 12:55:00
9:15 AM,37.0,25.2,62,30.18,10.0,SSW,3.5,-,N/A,,Scattered Clouds,200,2013-03-15 13:15:00
9:35 AM,39.2,25.7,58,30.17,10.0,SSW,3.5,-,N/A,,Clear,200,2013-03-15 13:35:00
9:55 AM,41.7,24.4,50,30.16,10.0,South,4.6,-,N/A,,Clear,190,2013-03-15 13:55:00
10:15 AM,44.1,24.8,47,30.15,10.0,South,4.6,-,N/A,,Clear,190,2013-03-15 14:15:00
10:35 AM,46.2,24.6,43,30.14,10.0,SSW,6.9,-,N/A,,Clear,200,2013-03-15 14:35:00
11:55 AM,52.5,24.8,34,30.11,10.0,SW,9.2,-,N/A,,Clear,220,2013-03-15 15:55:00
12:15 PM,53.8,26.8,35,30.09,10.0,SW,6.9,-,N/A,,Clear,220,2013-03-15 16:15:00
12:35 PM,54.7,27.9,36,30.09,10.0,WSW,9.2,18.4,N/A,,Clear,240,2013-03-15 16:35:00
12:55 PM,56.1,28.8,35,30.08,10.0,SW,10.4,19.6,N/A,,Clear,220,2013-03-15 16:55:00
1:15 PM,56.8,29.1,35,30.07,10.0,SSW,9.2,16.1,N/A,,Clear,210,2013-03-15 17:15:00
1:35 PM,57.4,29.8,35,30.06,10.0,SSW,12.7,17.3,N/A,,Clear,200,2013-03-15 17:35:00
1:55 PM,58.6,31.1,35,30.05,10.0,SW,4.6,-,N/A,,Clear,230,2013-03-15 17:55:00
2:15 PM,59.0,30.9,35,30.03,10.0,WSW,8.1,18.4,N/A,,Clear,240,2013-03-15 18:15:00
2:35 PM,59.4,30.9,34,30.02,10.0,SSW,11.5,18.4,N/A,,Clear,210,2013-03-15 18:35:00
2:55 PM,59.9,30.9,33,30.00,10.0,SSW,11.5,19.6,N/A,,Clear,210,2013-03-15 18:55:00
3:15 PM,59.5,30.7,34,29.99,10.0,SSW,9.2,20.7,N/A,,Clear,210,2013-03-15 19:15:00
3:35 PM,61.0,31.6,33,29.98,10.0,SSW,10.4,21.9,N/A,,Clear,200,2013-03-15 19:35:00
3:55 PM,61.3,31.6,33,29.97,10.0,SW,10.4,21.9,N/A,,Clear,220,2013-03-15 19:55:00
4:15 PM,61.2,32.0,33,29.96,10.0,SW,10.4,18.4,N/A,,Clear,220,2013-03-15 20:15:00
4:35 PM,61.9,32.2,33,29.95,10.0,SSW,8.1,17.3,N/A,,Clear,200,2013-03-15 20:35:00
4:55 PM,62.1,32.2,33,29.94,10.0,SW,9.2,19.6,N/A,,Clear,220,2013-03-15 20:55:00
5:15 PM,61.7,32.2,33,29.93,10.0,SW,15.0,23.0,N/A,,Clear,220,2013-03-15 21:15:00
5:35 PM,62.4,32.7,33,29.93,10.0,South,10.4,18.4,N/A,,Clear,190,2013-03-15 21:35:00
5:55 PM,62.6,33.1,33,29.92,10.0,SSW,11.5,-,N/A,,Clear,210,2013-03-15 21:55:00
6:15 PM,61.9,33.4,34,29.93,10.0,SW,13.8,18.4,N/A,,Clear,220,2013-03-15 22:15:00
6:35 PM,61.3,33.8,36,29.92,10.0,SSW,9.2,-,N/A,,Clear,200,2013-03-15 22:35:00
6:55 PM,60.3,33.4,37,29.91,10.0,SSW,6.9,-,N/A,,Clear,200,2013-03-15 22:55:00
7:15 PM,59.0,33.8,39,29.91,10.0,SSW,5.8,-,N/A,,Clear,200,2013-03-15 23:15:00
7:35 PM,57.6,33.3,40,29.91,10.0,SSW,4.6,-,N/A,,Clear,200,2013-03-15 23:35:00
7:55 PM,56.5,33.8,42,29.92,10.0,South,4.6,-,N/A,,Clear,190,2013-03-15 23:55:00
8:15 PM,55.6,34.0,44,29.91,10.0,South,4.6,-,N/A,,Clear,190,2013-03-16 00:15:00
8:35 PM,55.4,34.2,45,29.91,10.0,SSW,4.6,-,N/A,,Clear,200,2013-03-16 00:35:00
8:55 PM,54.9,34.2,46,29.91,10.0,South,4.6,-,N/A,,Clear,190,2013-03-16 00:55:00
9:15 PM,53.1,34.7,50,29.91,10.0,South,4.6,-,N/A,,Clear,190,2013-03-16 01:15:00
9:35 PM,53.2,34.7,49,29.91,10.0,SSW,3.5,-,N/A,,Clear,200,2013-03-16 01:35:00
9:55 PM,52.9,34.7,50,29.91,10.0,SSW,3.5,-,N/A,,Clear,200,2013-03-16 01:55:00
10:15 PM,51.8,35.1,53,29.91,10.0,South,4.6,-,N/A,,Clear,190,2013-03-16 02:15:00
10:35 PM,51.3,35.8,55,29.91,10.0,South,4.6,-,N/A,,Clear,190,2013-03-16 02:35:00
10:55 PM,50.9,36.3,57,29.90,10.0,SSW,5.8,-,N/A,,Clear,210,2013-03-16 02:55:00
11:15 PM,50.9,36.5,58,29.90,10.0,SSW,4.6,-,N/A,,Clear,210,2013-03-16 03:15:00
11:35 PM,50.9,36.7,58,29.89,10.0,SSW,3.5,-,N/A,,Clear,210,2013-03-16 03:35:00
11:55 PM,50.7,36.9,59,29.89,10.0,SSW,4.6,-,N/A,,Clear,210,2013-03-16 03:55:00